DECAYED
Showing default

SZ-17, 58146 (Decayed)

Orbit data source: Space-Track

SZ-17, 58146 was a payload satellite owned by ZZHGB (CN) in LEO that was launched on Thu, 26 Oct 2023 UTC via a CHANG ZHENG 2F launch vehicle from the Jiuquan Satellite Launch Center, China (JSC). Payloads include a variety of satellites, spacecraft, and rockets equipped with specific instruments for various scientific and technological missions. These include communications satellites like Starlink; space stations such as the ISS; scientific satellites like the Hubble; Earth observation satellites from companies like Planet Labs, Umbra, and HawkEye 360; GPS; miniature CubeSats for education and research; and military/defense satellites.

Not visible in the next 10 days
SZ-17 details
Identifier
58146, 2023-164A
Orbit
Decayed
Last TLE update9 months ago
Origin
Flag of CNZZHGB (CN / PRC)
ManufacturerCALT
MissionDecayed Civil Spaceship
Bus & MotorSHENZHOU, Unknown motor
Mass~8,100 kg wet, 3,258 kg dry
Launch date (UTC)
2023-10-26 (1 year ago)
Launch vehicle
CHANG ZHENG 2F
Launch site
Jiuquan Satellite Launch Center, China (JSC)
Object type
Payload
Rocket body
Debris
Shape & HBRCyl + 2 Pan, 17 m
Radar Cross Section39.234 m², Large (>1 m²)

Expand to show TLE details & history

TLE from 9 months ago
0 SZ-17
1 58146U 23164A   24131.92201202  .00086906  00000-0  90008-3 0  9998
2 58146  41.4681 310.7607 0003738 318.2893  41.7661 15.63655876 29311
Epoch: 2024-05-10T22:07Z
Definitive object data (Epoch: 2024-05-10T22:07:41.838Z)
Latitude-0.00005°
Longitude109.64075°
Altitude374.823 km
Speed7.688 km/s
True Right ascension20h 43m 02s
True Declination0° 00' 00"
Sunlit
Object was in daylight at TLE epoch
Visualization observer readout
Observer readout values are unavailable because the object's trajectory could not be propagated. This is usually caused when the trajectory data is faulty or the object's orbit has decayed.
Visualization observer readout
Observer readout values are unavailable because the object's trajectory could not be propagated. This is usually caused when the trajectory data is faulty or the object's orbit has decayed.
Orbital elements
Apogee altitude381.869 km
Perigee altitude376.817 km
Semi-major axis6,757.48 km
Eccentricity0.0003738
Inclination41.4681°
RAAN310.7607°
Arg. of periapsis318.2893°
True anomaly41.79464°
Mean anomaly41.7661°
Eccentric anomaly41.78037°
Mean motion3.9072 °/min
BSTAR0.00090008
Orbital period92.14 mins
Loading maneuver chart data...
Loading historical data...
Loading historical data...
Loading historical data...
Loading historical data...
Loading historical data...
Loading historical data...
Loading historical data...
Other satellites on launch #164 in the year 2023 (2023-10-26 UTC)

SZ-17 Visibility forecast

Observer location: undefined°, undefined

This satellite is decayed
Span
Click to sort rows by Start time (UTC) header in descending order
Start Az.
Max El. time (UTC)
Max El. Az.
Max El.
End time (UTC)
End Az.
|